sep=,
ESTACION,FECHA,NIVEL(m),CAUDAL RIO(m³/s),CAUDAL CANAL(m³/s),CAUDAL TOTAL(m³/s),PLUVIOMETRIA(l/m²),TEMPERATURA AIRE(ºC),CONDUCTIVIDAD(µS/cm),pH,SOLIDOS EN SUSPENSION(mg/l),TEMPERATURA AGUA(ºC),TURBIDEZ(NTU),OXIGENO(mg/l),MATERIA ORGANICA(1/m),FOSFATOS(mg/l),AMONIO(mg/l)
AFORALEKUA,DATA,MAILA(m),IBAI EMARIA(m³/s),KANAL EMARIA(m³/s),EMARI TOTALA(m³/s),PLUBIOMETRIA(l/m²),HAIZE TENPERATURA(ºC),KONDUKTIBITATEA(µS/cm),pH,SOLIDO ESEKIAK(mg/l),UR TENPERATURA(ºC),UHERTASUNA(NTU),OXIGENOA(mg/l),MATERIA ORGANIKOA(1/m),FOSFATOAK(mg/l),AMONIOA(mg/l)
AGAUNTZA,1993-10-01,0.237,0.884,-,0.884,-,-,-,-,-,-,-,-,-,-,-
AGAUNTZA,1993-10-02,0.359,2.434,-,2.434,-,-,-,-,-,-,-,-,-,-,-
AGAUNTZA,1993-10-03,0.669,10.153,-,10.153,-,-,-,-,-,-,-,-,-,-,-
AGAUNTZA,1993-10-04,0.507,5.685,-,5.685,-,-,-,-,-,-,-,-,-,-,-
AGAUNTZA,1993-10-05,0.342,2.159,-,2.159,-,-,-,-,-,-,-,-,-,-,-
AGAUNTZA,1993-10-06,0.272,1.21,-,1.21,-,-,-,-,-,-,-,-,-,-,-
AGAUNTZA,1993-10-07,0.23,0.796,-,0.796,-,-,-,-,-,-,-,-,-,-,-
AGAUNTZA,1993-10-08,0.226,0.764,-,0.764,-,-,-,-,-,-,-,-,-,-,-
AGAUNTZA,1993-10-09,0.199,0.552,-,0.552,-,-,-,-,-,-,-,-,-,-,-
AGAUNTZA,1993-10-10,0.194,0.517,-,0.517,-,-,-,-,-,-,-,-,-,-,-
AGAUNTZA,1993-10-11,0.214,0.681,-,0.681,-,-,-,-,-,-,-,-,-,-,-
AGAUNTZA,1993-10-12,0.306,1.659,-,1.659,-,-,-,-,-,-,-,-,-,-,-
AGAUNTZA,1993-10-13,0.235,0.836,-,0.836,-,-,-,-,-,-,-,-,-,-,-
AGAUNTZA,1993-10-14,0.214,0.666,-,0.666,-,-,-,-,-,-,-,-,-,-,-
AGAUNTZA,1993-10-15,0.191,0.502,-,0.502,-,-,-,-,-,-,-,-,-,-,-
AGAUNTZA,1993-10-16,0.172,0.384,-,0.384,-,-,-,-,-,-,-,-,-,-,-
AGAUNTZA,1993-10-17,0.165,0.348,-,0.348,-,-,-,-,-,-,-,-,-,-,-
AGAUNTZA,1993-10-18,0.165,0.344,-,0.344,-,-,-,-,-,-,-,-,-,-,-
AGAUNTZA,1993-10-19,0.173,0.39,-,0.39,-,-,-,-,-,-,-,-,-,-,-
AGAUNTZA,1993-10-20,0.172,0.383,-,0.383,-,-,-,-,-,-,-,-,-,-,-
AGAUNTZA,1993-10-21,0.379,3.339,-,3.339,-,-,-,-,-,-,-,-,-,-,-
AGAUNTZA,1993-10-22,0.414,3.466,-,3.466,-,-,-,-,-,-,-,-,-,-,-
AGAUNTZA,1993-10-23,0.527,6.065,-,6.065,-,-,-,-,-,-,-,-,-,-,-
AGAUNTZA,1993-10-24,0.605,8.269,-,8.269,-,-,-,-,-,-,-,-,-,-,-
AGAUNTZA,1993-10-25,0.418,3.54,-,3.54,-,-,-,-,-,-,-,-,-,-,-
AGAUNTZA,1993-10-26,0.344,2.188,-,2.188,-,-,-,-,-,-,-,-,-,-,-
AGAUNTZA,1993-10-27,0.304,1.599,-,1.599,-,-,-,-,-,-,-,-,-,-,-
AGAUNTZA,1993-10-28,0.31,1.688,-,1.688,-,-,-,-,-,-,-,-,-,-,-
AGAUNTZA,1993-10-29,0.313,1.725,-,1.725,-,-,-,-,-,-,-,-,-,-,-
AGAUNTZA,1993-10-30,0.283,1.335,-,1.335,-,-,-,-,-,-,-,-,-,-,-
AGAUNTZA,1993-10-31,0.261,1.089,-,1.089,-,-,-,-,-,-,-,-,-,-,-
AGAUNTZA,1993-11-01,0.247,0.95,-,0.95,-,-,-,-,-,-,-,-,-,-,-
AGAUNTZA,1993-11-02,0.232,0.809,-,0.809,-,-,-,-,-,-,-,-,-,-,-
AGAUNTZA,1993-11-03,0.216,0.676,-,0.676,-,-,-,-,-,-,-,-,-,-,-
AGAUNTZA,1993-11-04,0.205,0.591,-,0.591,-,-,-,-,-,-,-,-,-,-,-
AGAUNTZA,1993-11-05,0.195,0.524,-,0.524,-,-,-,-,-,-,-,-,-,-,-
AGAUNTZA,1993-11-06,0.191,0.496,-,0.496,-,-,-,-,-,-,-,-,-,-,-
AGAUNTZA,1993-11-07,0.499,5.695,-,5.695,-,-,-,-,-,-,-,-,-,-,-
AGAUNTZA,1993-11-08,0.399,3.169,-,3.169,-,-,-,-,-,-,-,-,-,-,-
AGAUNTZA,1993-11-09,0.322,1.849,-,1.849,-,-,-,-,-,-,-,-,-,-,-
AGAUNTZA,1993-11-10,0.283,1.333,-,1.333,-,-,-,-,-,-,-,-,-,-,-
AGAUNTZA,1993-11-11,0.27,1.188,-,1.188,-,-,-,-,-,-,-,-,-,-,-
AGAUNTZA,1993-11-12,0.277,1.268,-,1.268,-,-,-,-,-,-,-,-,-,-,-
AGAUNTZA,1993-11-13,0.26,1.077,-,1.077,-,-,-,-,-,-,-,-,-,-,-
AGAUNTZA,1993-11-14,0.242,0.904,-,0.904,-,-,-,-,-,-,-,-,-,-,-
AGAUNTZA,1993-11-15,0.227,0.762,-,0.762,-,-,-,-,-,-,-,-,-,-,-
AGAUNTZA,1993-11-16,0.215,0.672,-,0.672,-,-,-,-,-,-,-,-,-,-,-
AGAUNTZA,1993-11-17,0.204,0.591,-,0.591,-,-,-,-,-,-,-,-,-,-,-
AGAUNTZA,1993-11-18,0.193,0.513,-,0.513,-,-,-,-,-,-,-,-,-,-,-
AGAUNTZA,1993-11-19,0.183,0.449,-,0.449,-,-,-,-,-,-,-,-,-,-,-
AGAUNTZA,1993-11-20,0.175,0.403,-,0.403,-,-,-,-,-,-,-,-,-,-,-
AGAUNTZA,1993-11-21,0.169,0.37,-,0.37,-,-,-,-,-,-,-,-,-,-,-
AGAUNTZA,1993-11-22,0.161,0.324,-,0.324,-,-,-,-,-,-,-,-,-,-,-
AGAUNTZA,1993-11-23,0.156,0.301,-,0.301,-,-,-,-,-,-,-,-,-,-,-
AGAUNTZA,1993-11-24,0.156,0.301,-,0.301,-,-,-,-,-,-,-,-,-,-,-
AGAUNTZA,1993-11-25,0.153,0.287,-,0.287,-,-,-,-,-,-,-,-,-,-,-
AGAUNTZA,1993-11-26,0.149,0.268,-,0.268,-,-,-,-,-,-,-,-,-,-,-
AGAUNTZA,1993-11-27,0.147,0.26,-,0.26,-,-,-,-,-,-,-,-,-,-,-
AGAUNTZA,1993-11-28,0.144,0.248,-,0.248,-,-,-,-,-,-,-,-,-,-,-
AGAUNTZA,1993-11-29,0.144,0.245,-,0.245,-,-,-,-,-,-,-,-,-,-,-
AGAUNTZA,1993-11-30,0.223,0.886,-,0.886,-,-,-,-,-,-,-,-,-,-,-
AGAUNTZA,1993-12-01,0.325,2.034,-,2.034,-,-,-,-,-,-,-,-,-,-,-
AGAUNTZA,1993-12-02,0.475,4.787,-,4.787,-,-,-,-,-,-,-,-,-,-,-
AGAUNTZA,1993-12-03,0.382,2.832,-,2.832,-,-,-,-,-,-,-,-,-,-,-
AGAUNTZA,1993-12-04,0.314,1.738,-,1.738,-,-,-,-,-,-,-,-,-,-,-
AGAUNTZA,1993-12-05,0.273,1.22,-,1.22,-,-,-,-,-,-,-,-,-,-,-
AGAUNTZA,1993-12-06,0.251,0.981,-,0.981,-,-,-,-,-,-,-,-,-,-,-
AGAUNTZA,1993-12-07,0.239,0.875,-,0.875,-,-,-,-,-,-,-,-,-,-,-
AGAUNTZA,1993-12-08,0.224,0.739,-,0.739,-,-,-,-,-,-,-,-,-,-,-
AGAUNTZA,1993-12-09,0.214,0.66,-,0.66,-,-,-,-,-,-,-,-,-,-,-
AGAUNTZA,1993-12-10,0.213,0.652,-,0.652,-,-,-,-,-,-,-,-,-,-,-
AGAUNTZA,1993-12-11,0.205,0.592,-,0.592,-,-,-,-,-,-,-,-,-,-,-
AGAUNTZA,1993-12-12,0.198,0.545,-,0.545,-,-,-,-,-,-,-,-,-,-,-
AGAUNTZA,1993-12-13,0.194,0.519,-,0.519,-,-,-,-,-,-,-,-,-,-,-
AGAUNTZA,1993-12-14,0.206,0.601,-,0.601,-,-,-,-,-,-,-,-,-,-,-
AGAUNTZA,1993-12-15,0.239,0.878,-,0.878,-,-,-,-,-,-,-,-,-,-,-
AGAUNTZA,1993-12-16,0.214,0.661,-,0.661,-,-,-,-,-,-,-,-,-,-,-
AGAUNTZA,1993-12-17,0.214,0.662,-,0.662,-,-,-,-,-,-,-,-,-,-,-
AGAUNTZA,1993-12-18,0.204,0.589,-,0.589,-,-,-,-,-,-,-,-,-,-,-
AGAUNTZA,1993-12-19,0.193,0.51,-,0.51,-,-,-,-,-,-,-,-,-,-,-
AGAUNTZA,1993-12-20,0.184,0.455,-,0.455,-,-,-,-,-,-,-,-,-,-,-
AGAUNTZA,1993-12-21,0.19,0.494,-,0.494,-,-,-,-,-,-,-,-,-,-,-
AGAUNTZA,1993-12-22,0.293,1.466,-,1.466,-,-,-,-,-,-,-,-,-,-,-
AGAUNTZA,1993-12-23,0.259,1.068,-,1.068,-,-,-,-,-,-,-,-,-,-,-
AGAUNTZA,1993-12-24,0.466,5.403,-,5.403,-,-,-,-,-,-,-,-,-,-,-
AGAUNTZA,1993-12-25,0.952,20.327,-,20.327,-,-,-,-,-,-,-,-,-,-,-
AGAUNTZA,1993-12-26,1.25,37.475,-,37.475,-,-,-,-,-,-,-,-,-,-,-
AGAUNTZA,1993-12-27,0.934,19.28,-,19.28,-,-,-,-,-,-,-,-,-,-,-
AGAUNTZA,1993-12-28,0.807,14.744,-,14.744,-,-,-,-,-,-,-,-,-,-,-
AGAUNTZA,1993-12-29,0.578,7.46,-,7.46,-,-,-,-,-,-,-,-,-,-,-
AGAUNTZA,1993-12-30,0.487,5.077,-,5.077,-,-,-,-,-,-,-,-,-,-,-
AGAUNTZA,1993-12-31,0.436,3.907,-,3.907,-,-,-,-,-,-,-,-,-,-,-
AGAUNTZA,1994-01-01,0.448,4.179,-,4.179,-,-,-,-,-,-,-,-,-,-,-
AGAUNTZA,1994-01-02,0.382,2.834,-,2.834,-,-,-,-,-,-,-,-,-,-,-
AGAUNTZA,1994-01-03,0.356,2.376,-,2.376,-,-,-,-,-,-,-,-,-,-,-
AGAUNTZA,1994-01-04,0.362,2.468,-,2.468,-,-,-,-,-,-,-,-,-,-,-
AGAUNTZA,1994-01-05,0.339,2.1,-,2.1,-,-,-,-,-,-,-,-,-,-,-
AGAUNTZA,1994-01-06,0.492,5.373,-,5.373,-,-,-,-,-,-,-,-,-,-,-
AGAUNTZA,1994-01-07,0.449,4.194,-,4.194,-,-,-,-,-,-,-,-,-,-,-
AGAUNTZA,1994-01-08,0.449,4.177,-,4.177,-,-,-,-,-,-,-,-,-,-,-
AGAUNTZA,1994-01-09,0.465,4.55,-,4.55,-,-,-,-,-,-,-,-,-,-,-
AGAUNTZA,1994-01-10,0.446,4.128,-,4.128,-,-,-,-,-,-,-,-,-,-,-
AGAUNTZA,1994-01-11,0.406,3.291,-,3.291,-,-,-,-,-,-,-,-,-,-,-
AGAUNTZA,1994-01-12,0.376,2.707,-,2.707,-,-,-,-,-,-,-,-,-,-,-
AGAUNTZA,1994-01-13,0.35,2.268,-,2.268,-,-,-,-,-,-,-,-,-,-,-
AGAUNTZA,1994-01-14,0.321,1.825,-,1.825,-,-,-,-,-,-,-,-,-,-,-
AGAUNTZA,1994-01-15,0.304,1.599,-,1.599,-,-,-,-,-,-,-,-,-,-,-
AGAUNTZA,1994-01-16,0.308,1.704,-,1.704,-,-,-,-,-,-,-,-,-,-,-
AGAUNTZA,1994-01-17,0.55,6.711,-,6.711,-,-,-,-,-,-,-,-,-,-,-
AGAUNTZA,1994-01-18,0.408,3.339,-,3.339,-,-,-,-,-,-,-,-,-,-,-
AGAUNTZA,1994-01-19,0.361,2.447,-,2.447,-,-,-,-,-,-,-,-,-,-,-
AGAUNTZA,1994-01-20,0.326,1.898,-,1.898,-,-,-,-,-,-,-,-,-,-,-
AGAUNTZA,1994-01-21,0.339,2.118,-,2.118,-,-,-,-,-,-,-,-,-,-,-
AGAUNTZA,1994-01-22,0.37,2.606,-,2.606,-,-,-,-,-,-,-,-,-,-,-
AGAUNTZA,1994-01-23,0.376,2.718,-,2.718,-,-,-,-,-,-,-,-,-,-,-
AGAUNTZA,1994-01-24,0.438,4.016,-,4.016,-,-,-,-,-,-,-,-,-,-,-
AGAUNTZA,1994-01-25,0.517,5.8,-,5.8,-,-,-,-,-,-,-,-,-,-,-
AGAUNTZA,1994-01-26,0.457,4.365,-,4.365,-,-,-,-,-,-,-,-,-,-,-
AGAUNTZA,1994-01-27,0.373,2.674,-,2.674,-,-,-,-,-,-,-,-,-,-,-
AGAUNTZA,1994-01-28,0.335,2.03,-,2.03,-,-,-,-,-,-,-,-,-,-,-
AGAUNTZA,1994-01-29,0.318,1.788,-,1.788,-,-,-,-,-,-,-,-,-,-,-
AGAUNTZA,1994-01-30,0.284,1.345,-,1.345,-,-,-,-,-,-,-,-,-,-,-
AGAUNTZA,1994-01-31,0.263,1.108,-,1.108,-,-,-,-,-,-,-,-,-,-,-
AGAUNTZA,1994-02-01,0.248,0.955,-,0.955,-,-,-,-,-,-,-,-,-,-,-
AGAUNTZA,1994-02-02,0.237,0.851,-,0.851,-,-,-,-,-,-,-,-,-,-,-
AGAUNTZA,1994-02-03,0.271,1.255,-,1.255,-,-,-,-,-,-,-,-,-,-,-
AGAUNTZA,1994-02-04,0.302,1.573,-,1.573,-,-,-,-,-,-,-,-,-,-,-
AGAUNTZA,1994-02-05,0.365,2.569,-,2.569,-,-,-,-,-,-,-,-,-,-,-
AGAUNTZA,1994-02-06,0.377,2.748,-,2.748,-,-,-,-,-,-,-,-,-,-,-
AGAUNTZA,1994-02-07,0.348,2.234,-,2.234,-,-,-,-,-,-,-,-,-,-,-
AGAUNTZA,1994-02-08,0.473,4.877,-,4.877,-,-,-,-,-,-,-,-,-,-,-
AGAUNTZA,1994-02-09,0.494,5.238,-,5.238,-,-,-,-,-,-,-,-,-,-,-
AGAUNTZA,1994-02-10,0.43,3.781,-,3.781,-,-,-,-,-,-,-,-,-,-,-
AGAUNTZA,1994-02-11,0.401,3.187,-,3.187,-,-,-,-,-,-,-,-,-,-,-
AGAUNTZA,1994-02-12,0.409,3.378,-,3.378,-,-,-,-,-,-,-,-,-,-,-
AGAUNTZA,1994-02-13,0.456,4.354,-,4.354,-,-,-,-,-,-,-,-,-,-,-
AGAUNTZA,1994-02-14,0.361,2.473,-,2.473,-,-,-,-,-,-,-,-,-,-,-
AGAUNTZA,1994-02-15,0.304,1.604,-,1.604,-,-,-,-,-,-,-,-,-,-,-
AGAUNTZA,1994-02-16,0.266,1.145,-,1.145,-,-,-,-,-,-,-,-,-,-,-
AGAUNTZA,1994-02-17,0.237,0.86,-,0.86,-,-,-,-,-,-,-,-,-,-,-
AGAUNTZA,1994-02-18,0.251,1.013,-,1.013,-,-,-,-,-,-,-,-,-,-,-
AGAUNTZA,1994-02-19,0.293,1.461,-,1.461,-,-,-,-,-,-,-,-,-,-,-
AGAUNTZA,1994-02-20,0.306,1.636,-,1.636,-,-,-,-,-,-,-,-,-,-,-
AGAUNTZA,1994-02-21,0.316,1.757,-,1.757,-,-,-,-,-,-,-,-,-,-,-
AGAUNTZA,1994-02-22,0.284,1.34,-,1.34,-,-,-,-,-,-,-,-,-,-,-
AGAUNTZA,1994-02-23,0.281,1.304,-,1.304,-,-,-,-,-,-,-,-,-,-,-
AGAUNTZA,1994-02-24,0.268,1.164,-,1.164,-,-,-,-,-,-,-,-,-,-,-
AGAUNTZA,1994-02-25,0.254,1.012,-,1.012,-,-,-,-,-,-,-,-,-,-,-
AGAUNTZA,1994-02-26,0.249,0.97,-,0.97,-,-,-,-,-,-,-,-,-,-,-
AGAUNTZA,1994-02-27,0.236,0.842,-,0.842,-,-,-,-,-,-,-,-,-,-,-
AGAUNTZA,1994-02-28,0.222,0.724,-,0.724,-,-,-,-,-,-,-,-,-,-,-
AGAUNTZA,1994-03-01,0.294,1.516,-,1.516,-,-,-,-,-,-,-,-,-,-,-
AGAUNTZA,1994-03-02,0.288,1.401,-,1.401,-,-,-,-,-,-,-,-,-,-,-
AGAUNTZA,1994-03-03,0.269,1.171,-,1.171,-,-,-,-,-,-,-,-,-,-,-
AGAUNTZA,1994-03-04,0.274,1.23,-,1.23,-,-,-,-,-,-,-,-,-,-,-
AGAUNTZA,1994-03-05,0.268,1.172,-,1.172,-,-,-,-,-,-,-,-,-,-,-
AGAUNTZA,1994-03-06,0.421,3.597,-,3.597,-,-,-,-,-,-,-,-,-,-,-
AGAUNTZA,1994-03-07,0.369,2.598,-,2.598,-,-,-,-,-,-,-,-,-,-,-
AGAUNTZA,1994-03-08,0.323,1.858,-,1.858,-,-,-,-,-,-,-,-,-,-,-
AGAUNTZA,1994-03-09,0.292,1.444,-,1.444,-,-,-,-,-,-,-,-,-,-,-
AGAUNTZA,1994-03-10,0.267,1.153,-,1.153,-,-,-,-,-,-,-,-,-,-,-
AGAUNTZA,1994-03-11,0.253,1.0,-,1.0,-,-,-,-,-,-,-,-,-,-,-
AGAUNTZA,1994-03-12,0.246,0.94,-,0.94,-,-,-,-,-,-,-,-,-,-,-
AGAUNTZA,1994-03-13,0.242,0.896,-,0.896,-,-,-,-,-,-,-,-,-,-,-
AGAUNTZA,1994-03-14,0.397,3.298,-,3.298,-,-,-,-,-,-,-,-,-,-,-
AGAUNTZA,1994-03-15,0.356,2.394,-,2.394,-,-,-,-,-,-,-,-,-,-,-
AGAUNTZA,1994-03-16,0.304,1.591,-,1.591,-,-,-,-,-,-,-,-,-,-,-
AGAUNTZA,1994-03-17,0.279,1.29,-,1.29,-,-,-,-,-,-,-,-,-,-,-
AGAUNTZA,1994-03-18,0.262,1.1,-,1.1,-,-,-,-,-,-,-,-,-,-,-
AGAUNTZA,1994-03-19,0.244,0.914,-,0.914,-,-,-,-,-,-,-,-,-,-,-
AGAUNTZA,1994-03-20,0.23,0.795,-,0.795,-,-,-,-,-,-,-,-,-,-,-
AGAUNTZA,1994-03-21,0.22,0.711,-,0.711,-,-,-,-,-,-,-,-,-,-,-
AGAUNTZA,1994-03-22,0.247,0.957,-,0.957,-,-,-,-,-,-,-,-,-,-,-
AGAUNTZA,1994-03-23,0.223,0.751,-,0.751,-,-,-,-,-,-,-,-,-,-,-
AGAUNTZA,1994-03-24,0.175,0.4,-,0.4,-,-,-,-,-,-,-,-,-,-,-
AGAUNTZA,1994-03-25,0.16,0.318,-,0.318,-,-,-,-,-,-,-,-,-,-,-
AGAUNTZA,1994-03-26,0.245,1.319,-,1.319,-,-,-,-,-,-,-,-,-,-,-
AGAUNTZA,1994-03-27,0.303,1.617,-,1.617,-,-,-,-,-,-,-,-,-,-,-
AGAUNTZA,1994-03-28,0.235,0.84,-,0.84,-,-,-,-,-,-,-,-,-,-,-
AGAUNTZA,1994-03-29,0.205,0.593,-,0.593,-,-,-,-,-,-,-,-,-,-,-
AGAUNTZA,1994-03-30,0.202,0.575,-,0.575,-,-,-,-,-,-,-,-,-,-,-
AGAUNTZA,1994-03-31,0.204,0.586,-,0.586,-,-,-,-,-,-,-,-,-,-,-
AGAUNTZA,1994-04-01,0.205,0.594,-,0.594,-,-,-,-,-,-,-,-,-,-,-
AGAUNTZA,1994-04-02,0.276,1.397,-,1.397,-,-,-,-,-,-,-,-,-,-,-
AGAUNTZA,1994-04-03,0.728,12.386,-,12.386,-,-,-,-,-,-,-,-,-,-,-
AGAUNTZA,1994-04-04,0.623,8.721,-,8.721,-,-,-,-,-,-,-,-,-,-,-
AGAUNTZA,1994-04-05,0.596,8.122,-,8.122,-,-,-,-,-,-,-,-,-,-,-
AGAUNTZA,1994-04-06,0.785,13.986,-,13.986,-,-,-,-,-,-,-,-,-,-,-
AGAUNTZA,1994-04-07,0.66,9.865,-,9.865,-,-,-,-,-,-,-,-,-,-,-
AGAUNTZA,1994-04-08,0.666,10.054,-,10.054,-,-,-,-,-,-,-,-,-,-,-
AGAUNTZA,1994-04-09,0.545,6.64,-,6.64,-,-,-,-,-,-,-,-,-,-,-
AGAUNTZA,1994-04-10,0.937,19.662,-,19.662,-,-,-,-,-,-,-,-,-,-,-
AGAUNTZA,1994-04-11,0.739,12.304,-,12.304,-,-,-,-,-,-,-,-,-,-,-
AGAUNTZA,1994-04-12,0.575,7.351,-,7.351,-,-,-,-,-,-,-,-,-,-,-
AGAUNTZA,1994-04-13,0.475,4.79,-,4.79,-,-,-,-,-,-,-,-,-,-,-
AGAUNTZA,1994-04-14,0.472,4.72,-,4.72,-,-,-,-,-,-,-,-,-,-,-
AGAUNTZA,1994-04-15,0.47,4.665,-,4.665,-,-,-,-,-,-,-,-,-,-,-
AGAUNTZA,1994-04-16,0.415,3.478,-,3.478,-,-,-,-,-,-,-,-,-,-,-
AGAUNTZA,1994-04-17,0.374,2.68,-,2.68,-,-,-,-,-,-,-,-,-,-,-
AGAUNTZA,1994-04-18,0.466,4.595,-,4.595,-,-,-,-,-,-,-,-,-,-,-
AGAUNTZA,1994-04-19,0.452,4.244,-,4.244,-,-,-,-,-,-,-,-,-,-,-
AGAUNTZA,1994-04-20,0.4,3.181,-,3.181,-,-,-,-,-,-,-,-,-,-,-
AGAUNTZA,1994-04-21,0.362,2.469,-,2.469,-,-,-,-,-,-,-,-,-,-,-
AGAUNTZA,1994-04-22,0.343,2.154,-,2.154,-,-,-,-,-,-,-,-,-,-,-
AGAUNTZA,1994-04-23,0.351,2.296,-,2.296,-,-,-,-,-,-,-,-,-,-,-
AGAUNTZA,1994-04-24,0.336,2.042,-,2.042,-,-,-,-,-,-,-,-,-,-,-
AGAUNTZA,1994-04-25,0.307,1.639,-,1.639,-,-,-,-,-,-,-,-,-,-,-
AGAUNTZA,1994-04-26,0.274,1.23,-,1.23,-,-,-,-,-,-,-,-,-,-,-
AGAUNTZA,1994-04-27,0.281,1.31,-,1.31,-,-,-,-,-,-,-,-,-,-,-
AGAUNTZA,1994-04-28,0.283,1.337,-,1.337,-,-,-,-,-,-,-,-,-,-,-
AGAUNTZA,1994-04-29,0.263,1.12,-,1.12,-,-,-,-,-,-,-,-,-,-,-
AGAUNTZA,1994-04-30,0.239,0.881,-,0.881,-,-,-,-,-,-,-,-,-,-,-
AGAUNTZA,1994-05-01,0.221,0.719,-,0.719,-,-,-,-,-,-,-,-,-,-,-
AGAUNTZA,1994-05-02,0.201,0.568,-,0.568,-,-,-,-,-,-,-,-,-,-,-
AGAUNTZA,1994-05-03,0.178,0.417,-,0.417,-,-,-,-,-,-,-,-,-,-,-
AGAUNTZA,1994-05-04,0.174,0.393,-,0.393,-,-,-,-,-,-,-,-,-,-,-
AGAUNTZA,1994-05-05,0.166,0.353,-,0.353,-,-,-,-,-,-,-,-,-,-,-
AGAUNTZA,1994-05-06,0.16,0.321,-,0.321,-,-,-,-,-,-,-,-,-,-,-
AGAUNTZA,1994-05-07,0.182,0.522,-,0.522,-,-,-,-,-,-,-,-,-,-,-
AGAUNTZA,1994-05-08,0.362,2.522,-,2.522,-,-,-,-,-,-,-,-,-,-,-
AGAUNTZA,1994-05-09,0.357,2.703,-,2.703,-,-,-,-,-,-,-,-,-,-,-
AGAUNTZA,1994-05-10,0.366,2.604,-,2.604,-,-,-,-,-,-,-,-,-,-,-
AGAUNTZA,1994-05-11,0.313,1.767,-,1.767,-,-,-,-,-,-,-,-,-,-,-
AGAUNTZA,1994-05-12,0.303,1.596,-,1.596,-,-,-,-,-,-,-,-,-,-,-
AGAUNTZA,1994-05-13,0.278,1.363,-,1.363,-,-,-,-,-,-,-,-,-,-,-
AGAUNTZA,1994-05-14,0.335,2.061,-,2.061,-,-,-,-,-,-,-,-,-,-,-
AGAUNTZA,1994-05-15,0.27,1.184,-,1.184,-,-,-,-,-,-,-,-,-,-,-
AGAUNTZA,1994-05-16,0.281,1.347,-,1.347,-,-,-,-,-,-,-,-,-,-,-
AGAUNTZA,1994-05-17,0.29,1.424,-,1.424,-,-,-,-,-,-,-,-,-,-,-
AGAUNTZA,1994-05-18,0.253,1.003,-,1.003,-,-,-,-,-,-,-,-,-,-,-
AGAUNTZA,1994-05-19,0.234,0.829,-,0.829,-,-,-,-,-,-,-,-,-,-,-
AGAUNTZA,1994-05-20,0.218,0.691,-,0.691,-,-,-,-,-,-,-,-,-,-,-
AGAUNTZA,1994-05-21,0.205,0.596,-,0.596,-,-,-,-,-,-,-,-,-,-,-
AGAUNTZA,1994-05-22,0.27,1.613,-,1.613,-,-,-,-,-,-,-,-,-,-,-
AGAUNTZA,1994-05-23,0.374,2.721,-,2.721,-,-,-,-,-,-,-,-,-,-,-
AGAUNTZA,1994-05-24,0.318,1.781,-,1.781,-,-,-,-,-,-,-,-,-,-,-
AGAUNTZA,1994-05-25,0.289,1.41,-,1.41,-,-,-,-,-,-,-,-,-,-,-
AGAUNTZA,1994-05-26,0.25,0.98,-,0.98,-,-,-,-,-,-,-,-,-,-,-
AGAUNTZA,1994-05-27,0.222,0.725,-,0.725,-,-,-,-,-,-,-,-,-,-,-
AGAUNTZA,1994-05-28,0.2,0.563,-,0.563,-,-,-,-,-,-,-,-,-,-,-
AGAUNTZA,1994-05-29,0.177,0.41,-,0.41,-,-,-,-,-,-,-,-,-,-,-
AGAUNTZA,1994-05-30,0.172,0.383,-,0.383,-,-,-,-,-,-,-,-,-,-,-
AGAUNTZA,1994-05-31,0.166,0.349,-,0.349,-,-,-,-,-,-,-,-,-,-,-
AGAUNTZA,1994-06-01,0.159,0.314,-,0.314,-,-,-,-,-,-,-,-,-,-,-
AGAUNTZA,1994-06-02,0.326,2.117,-,2.117,-,-,-,-,-,-,-,-,-,-,-
AGAUNTZA,1994-06-03,0.218,0.7,-,0.7,-,-,-,-,-,-,-,-,-,-,-
AGAUNTZA,1994-06-04,0.189,0.487,-,0.487,-,-,-,-,-,-,-,-,-,-,-
AGAUNTZA,1994-06-05,0.174,0.397,-,0.397,-,-,-,-,-,-,-,-,-,-,-
AGAUNTZA,1994-06-06,0.169,0.368,-,0.368,-,-,-,-,-,-,-,-,-,-,-
AGAUNTZA,1994-06-07,0.157,0.307,-,0.307,-,-,-,-,-,-,-,-,-,-,-
AGAUNTZA,1994-06-08,0.151,0.278,-,0.278,-,-,-,-,-,-,-,-,-,-,-
AGAUNTZA,1994-06-09,0.157,0.306,-,0.306,-,-,-,-,-,-,-,-,-,-,-
AGAUNTZA,1994-06-10,0.146,0.254,-,0.254,-,-,-,-,-,-,-,-,-,-,-
AGAUNTZA,1994-06-11,0.139,0.225,-,0.225,-,-,-,-,-,-,-,-,-,-,-
AGAUNTZA,1994-06-12,0.139,0.224,-,0.224,-,-,-,-,-,-,-,-,-,-,-
AGAUNTZA,1994-06-13,0.137,0.218,-,0.218,-,-,-,-,-,-,-,-,-,-,-
AGAUNTZA,1994-06-14,0.132,0.198,-,0.198,-,-,-,-,-,-,-,-,-,-,-
AGAUNTZA,1994-06-15,0.122,0.163,-,0.163,-,-,-,-,-,-,-,-,-,-,-
AGAUNTZA,1994-06-16,0.121,0.161,-,0.161,-,-,-,-,-,-,-,-,-,-,-
AGAUNTZA,1994-06-17,0.119,0.155,-,0.155,-,-,-,-,-,-,-,-,-,-,-
AGAUNTZA,1994-06-18,0.14,0.234,-,0.234,-,-,-,-,-,-,-,-,-,-,-
AGAUNTZA,1994-06-19,0.147,0.261,-,0.261,-,-,-,-,-,-,-,-,-,-,-
AGAUNTZA,1994-06-20,0.125,0.174,-,0.174,-,-,-,-,-,-,-,-,-,-,-
AGAUNTZA,1994-06-21,0.119,0.154,-,0.154,-,-,-,-,-,-,-,-,-,-,-
AGAUNTZA,1994-06-22,0.115,0.141,-,0.141,-,-,-,-,-,-,-,-,-,-,-
AGAUNTZA,1994-06-23,0.111,0.128,-,0.128,-,-,-,-,-,-,-,-,-,-,-
AGAUNTZA,1994-06-24,0.107,0.117,-,0.117,-,-,-,-,-,-,-,-,-,-,-
AGAUNTZA,1994-06-25,0.204,0.634,-,0.634,-,-,-,-,-,-,-,-,-,-,-
AGAUNTZA,1994-06-26,0.238,0.958,-,0.958,-,-,-,-,-,-,-,-,-,-,-
AGAUNTZA,1994-06-27,0.203,0.6,-,0.6,-,-,-,-,-,-,-,-,-,-,-
AGAUNTZA,1994-06-28,0.15,0.274,-,0.274,-,-,-,-,-,-,-,-,-,-,-
AGAUNTZA,1994-06-29,0.128,0.185,-,0.185,-,-,-,-,-,-,-,-,-,-,-
AGAUNTZA,1994-06-30,0.124,0.168,-,0.168,-,-,-,-,-,-,-,-,-,-,-
AGAUNTZA,1994-07-01,0.122,0.163,-,0.163,-,-,-,-,-,-,-,-,-,-,-
AGAUNTZA,1994-07-02,0.121,0.159,-,0.159,-,-,-,-,-,-,-,-,-,-,-
AGAUNTZA,1994-07-03,0.117,0.145,-,0.145,-,-,-,-,-,-,-,-,-,-,-
AGAUNTZA,1994-07-04,0.111,0.13,-,0.13,-,-,-,-,-,-,-,-,-,-,-
AGAUNTZA,1994-07-05,0.113,0.134,-,0.134,-,-,-,-,-,-,-,-,-,-,-
AGAUNTZA,1994-07-06,0.112,0.132,-,0.132,-,-,-,-,-,-,-,-,-,-,-
AGAUNTZA,1994-07-07,0.11,0.126,-,0.126,-,-,-,-,-,-,-,-,-,-,-
AGAUNTZA,1994-07-08,0.104,0.11,-,0.11,-,-,-,-,-,-,-,-,-,-,-
AGAUNTZA,1994-07-09,0.1,0.1,-,0.1,-,-,-,-,-,-,-,-,-,-,-
AGAUNTZA,1994-07-10,0.102,0.103,-,0.103,-,-,-,-,-,-,-,-,-,-,-
AGAUNTZA,1994-07-11,0.104,0.109,-,0.109,-,-,-,-,-,-,-,-,-,-,-
AGAUNTZA,1994-07-12,0.105,0.112,-,0.112,-,-,-,-,-,-,-,-,-,-,-
AGAUNTZA,1994-07-13,0.109,0.123,-,0.123,-,-,-,-,-,-,-,-,-,-,-
AGAUNTZA,1994-07-14,0.12,0.157,-,0.157,-,-,-,-,-,-,-,-,-,-,-
AGAUNTZA,1994-07-15,0.114,0.136,-,0.136,-,-,-,-,-,-,-,-,-,-,-
AGAUNTZA,1994-07-16,0.106,0.113,-,0.113,-,-,-,-,-,-,-,-,-,-,-
AGAUNTZA,1994-07-17,0.101,0.102,-,0.102,-,-,-,-,-,-,-,-,-,-,-
AGAUNTZA,1994-07-18,0.103,0.108,-,0.108,-,-,-,-,-,-,-,-,-,-,-
AGAUNTZA,1994-07-19,0.108,0.119,-,0.119,-,-,-,-,-,-,-,-,-,-,-
AGAUNTZA,1994-07-20,0.106,0.116,-,0.116,-,-,-,-,-,-,-,-,-,-,-
AGAUNTZA,1994-07-21,0.104,0.109,-,0.109,-,-,-,-,-,-,-,-,-,-,-
AGAUNTZA,1994-07-22,0.104,0.109,-,0.109,-,-,-,-,-,-,-,-,-,-,-
AGAUNTZA,1994-07-23,0.106,0.114,-,0.114,-,-,-,-,-,-,-,-,-,-,-
AGAUNTZA,1994-07-24,0.104,0.11,-,0.11,-,-,-,-,-,-,-,-,-,-,-
AGAUNTZA,1994-07-25,0.109,0.124,-,0.124,-,-,-,-,-,-,-,-,-,-,-
AGAUNTZA,1994-07-26,0.11,0.126,-,0.126,-,-,-,-,-,-,-,-,-,-,-
AGAUNTZA,1994-07-27,0.106,0.114,-,0.114,-,-,-,-,-,-,-,-,-,-,-
AGAUNTZA,1994-07-28,0.115,0.141,-,0.141,-,-,-,-,-,-,-,-,-,-,-
AGAUNTZA,1994-07-29,0.118,0.15,-,0.15,-,-,-,-,-,-,-,-,-,-,-
AGAUNTZA,1994-07-30,0.122,0.168,-,0.168,-,-,-,-,-,-,-,-,-,-,-
AGAUNTZA,1994-07-31,0.187,0.508,-,0.508,-,-,-,-,-,-,-,-,-,-,-
AGAUNTZA,1994-08-01,0.138,0.222,-,0.222,-,-,-,-,-,-,-,-,-,-,-
AGAUNTZA,1994-08-02,0.124,0.169,-,0.169,-,-,-,-,-,-,-,-,-,-,-
AGAUNTZA,1994-08-03,0.106,0.116,-,0.116,-,-,-,-,-,-,-,-,-,-,-
AGAUNTZA,1994-08-04,0.135,0.218,-,0.218,-,-,-,-,-,-,-,-,-,-,-
AGAUNTZA,1994-08-05,0.141,0.235,-,0.235,-,-,-,-,-,-,-,-,-,-,-
AGAUNTZA,1994-08-06,0.121,0.16,-,0.16,-,-,-,-,-,-,-,-,-,-,-
AGAUNTZA,1994-08-07,0.111,0.129,-,0.129,-,-,-,-,-,-,-,-,-,-,-
AGAUNTZA,1994-08-08,0.107,0.116,-,0.116,-,-,-,-,-,-,-,-,-,-,-
AGAUNTZA,1994-08-09,0.102,0.104,-,0.104,-,-,-,-,-,-,-,-,-,-,-
AGAUNTZA,1994-08-10,0.101,0.101,-,0.101,-,-,-,-,-,-,-,-,-,-,-
AGAUNTZA,1994-08-11,0.11,0.126,-,0.126,-,-,-,-,-,-,-,-,-,-,-
AGAUNTZA,1994-08-12,0.109,0.122,-,0.122,-,-,-,-,-,-,-,-,-,-,-
AGAUNTZA,1994-08-13,0.115,0.142,-,0.142,-,-,-,-,-,-,-,-,-,-,-
AGAUNTZA,1994-08-14,0.119,0.155,-,0.155,-,-,-,-,-,-,-,-,-,-,-
AGAUNTZA,1994-08-15,0.115,0.141,-,0.141,-,-,-,-,-,-,-,-,-,-,-
AGAUNTZA,1994-08-16,0.112,0.132,-,0.132,-,-,-,-,-,-,-,-,-,-,-
AGAUNTZA,1994-08-17,0.114,0.137,-,0.137,-,-,-,-,-,-,-,-,-,-,-
AGAUNTZA,1994-08-18,0.111,0.129,-,0.129,-,-,-,-,-,-,-,-,-,-,-
AGAUNTZA,1994-08-19,0.102,0.105,-,0.105,-,-,-,-,-,-,-,-,-,-,-
AGAUNTZA,1994-08-20,0.104,0.108,-,0.108,-,-,-,-,-,-,-,-,-,-,-
AGAUNTZA,1994-08-21,0.107,0.116,-,0.116,-,-,-,-,-,-,-,-,-,-,-
AGAUNTZA,1994-08-22,0.107,0.117,-,0.117,-,-,-,-,-,-,-,-,-,-,-
AGAUNTZA,1994-08-23,0.108,0.119,-,0.119,-,-,-,-,-,-,-,-,-,-,-
AGAUNTZA,1994-08-24,0.122,0.165,-,0.165,-,-,-,-,-,-,-,-,-,-,-
AGAUNTZA,1994-08-25,0.125,0.172,-,0.172,-,-,-,-,-,-,-,-,-,-,-
AGAUNTZA,1994-08-26,0.112,0.131,-,0.131,-,-,-,-,-,-,-,-,-,-,-
AGAUNTZA,1994-08-27,0.109,0.123,-,0.123,-,-,-,-,-,-,-,-,-,-,-
AGAUNTZA,1994-08-28,0.106,0.115,-,0.115,-,-,-,-,-,-,-,-,-,-,-
AGAUNTZA,1994-08-29,0.108,0.121,-,0.121,-,-,-,-,-,-,-,-,-,-,-
AGAUNTZA,1994-08-30,0.11,0.126,-,0.126,-,-,-,-,-,-,-,-,-,-,-
AGAUNTZA,1994-08-31,0.11,0.127,-,0.127,-,-,-,-,-,-,-,-,-,-,-
AGAUNTZA,1994-09-01,0.109,0.122,-,0.122,-,-,-,-,-,-,-,-,-,-,-
AGAUNTZA,1994-09-02,0.109,0.123,-,0.123,-,-,-,-,-,-,-,-,-,-,-
AGAUNTZA,1994-09-03,0.106,0.114,-,0.114,-,-,-,-,-,-,-,-,-,-,-
AGAUNTZA,1994-09-04,0.104,0.11,-,0.11,-,-,-,-,-,-,-,-,-,-,-
AGAUNTZA,1994-09-05,0.106,0.115,-,0.115,-,-,-,-,-,-,-,-,-,-,-
AGAUNTZA,1994-09-06,0.101,0.101,-,0.101,-,-,-,-,-,-,-,-,-,-,-
AGAUNTZA,1994-09-07,0.107,0.119,-,0.119,-,-,-,-,-,-,-,-,-,-,-
AGAUNTZA,1994-09-08,0.127,0.181,-,0.181,-,-,-,-,-,-,-,-,-,-,-
AGAUNTZA,1994-09-09,0.11,0.126,-,0.126,-,-,-,-,-,-,-,-,-,-,-
AGAUNTZA,1994-09-10,0.101,0.103,-,0.103,-,-,-,-,-,-,-,-,-,-,-
AGAUNTZA,1994-09-11,0.099,0.097,-,0.097,-,-,-,-,-,-,-,-,-,-,-
AGAUNTZA,1994-09-12,0.108,0.121,-,0.121,-,-,-,-,-,-,-,-,-,-,-
AGAUNTZA,1994-09-13,0.114,0.137,-,0.137,-,-,-,-,-,-,-,-,-,-,-
AGAUNTZA,1994-09-14,0.111,0.13,-,0.13,-,-,-,-,-,-,-,-,-,-,-
AGAUNTZA,1994-09-15,0.111,0.129,-,0.129,-,-,-,-,-,-,-,-,-,-,-
AGAUNTZA,1994-09-16,0.112,0.133,-,0.133,-,-,-,-,-,-,-,-,-,-,-
AGAUNTZA,1994-09-17,0.119,0.153,-,0.153,-,-,-,-,-,-,-,-,-,-,-
AGAUNTZA,1994-09-18,0.136,0.214,-,0.214,-,-,-,-,-,-,-,-,-,-,-
AGAUNTZA,1994-09-19,0.112,0.133,-,0.133,-,-,-,-,-,-,-,-,-,-,-
AGAUNTZA,1994-09-20,0.1,0.099,-,0.099,-,-,-,-,-,-,-,-,-,-,-
AGAUNTZA,1994-09-21,0.152,0.289,-,0.289,-,-,-,-,-,-,-,-,-,-,-
AGAUNTZA,1994-09-22,0.139,0.224,-,0.224,-,-,-,-,-,-,-,-,-,-,-
AGAUNTZA,1994-09-23,0.157,0.352,-,0.352,-,-,-,-,-,-,-,-,-,-,-
AGAUNTZA,1994-09-24,0.326,2.002,-,2.002,-,-,-,-,-,-,-,-,-,-,-
AGAUNTZA,1994-09-25,0.182,0.448,-,0.448,-,-,-,-,-,-,-,-,-,-,-
AGAUNTZA,1994-09-26,0.144,0.247,-,0.247,-,-,-,-,-,-,-,-,-,-,-
AGAUNTZA,1994-09-27,0.145,0.259,-,0.259,-,-,-,-,-,-,-,-,-,-,-
AGAUNTZA,1994-09-28,0.22,0.725,-,0.725,-,-,-,-,-,-,-,-,-,-,-
AGAUNTZA,1994-09-29,0.173,0.391,-,0.391,-,-,-,-,-,-,-,-,-,-,-
AGAUNTZA,1994-09-30,0.143,0.242,-,0.242,-,-,-,-,-,-,-,-,-,-,-
AIXOLA,1993-10-01,0.157,0.257,-,0.257,30.0,9.6,-,-,-,-,-,-,-,-,-
AIXOLA,1993-10-02,0.195,0.358,-,0.358,21.8,6.7,-,-,-,-,-,-,-,-,-
AIXOLA,1993-10-03,0.3,0.96,-,0.96,35.0,8.8,-,-,-,-,-,-,-,-,-
AIXOLA,1993-10-04,0.207,0.412,-,0.412,0.2,12.1,-,-,-,-,-,-,-,-,-
AIXOLA,1993-10-05,0.17,0.246,-,0.246,0.0,12.7,-,-,-,-,-,-,-,-,-
AIXOLA,1993-10-06,0.152,0.182,-,0.182,2.4,10.6,-,-,-,-,-,-,-,-,-
AIXOLA,1993-10-07,0.141,0.148,-,0.148,0.8,8.8,-,-,-,-,-,-,-,-,-
AIXOLA,1993-10-08,0.131,0.122,-,0.122,0.0,7.8,-,-,-,-,-,-,-,-,-
AIXOLA,1993-10-09,0.125,0.107,-,0.107,0.8,7.9,-,-,-,-,-,-,-,-,-
AIXOLA,1993-10-10,0.118,0.094,-,0.094,0.0,13.1,-,-,-,-,-,-,-,-,-
AIXOLA,1993-10-11,0.12,0.099,-,0.099,14.2,13.2,-,-,-,-,-,-,-,-,-
AIXOLA,1993-10-12,0.112,0.085,-,0.085,0.0,11.5,-,-,-,-,-,-,-,-,-
AIXOLA,1993-10-13,0.109,0.082,-,0.082,4.6,10.9,-,-,-,-,-,-,-,-,-
AIXOLA,1993-10-14,0.108,0.079,-,0.079,0.2,9.1,-,-,-,-,-,-,-,-,-